Romeoville, IL

5:04 PM CDT on May 26, 2018 (GMT -0500)
Lewis University

Weather History for KLOT - November, 2012

Change the Weather History Date:

Thursday, November 22, 2012

  Actual Average Record
Temperature  
Mean Temperature 52 °F 37 °F  
Max Temperature 63 °F 45 °F 69 °F (2010)
Min Temperature 41 °F 30 °F 6 °F (2015)
Degree Days  
Heating Degree Days 13 28  
Month to date heating degree days 497 493  
Since 1 July heating degree days 1040 980  
Cooling Degree Days 0 0  
Month to date cooling degree days 0 0  
Year to date cooling degree days 1267 862  
Moisture  
Dew Point 44 °F    
Average Humidity 81    
Maximum Humidity 100    
Minimum Humidity 53    
Precipitation  
Precipitation 0.09 in 0.12 in 0.86 in (2010)
Month to date precipitation 0.97 2.48  
Year to date precipitation 28.52 36.84  
Snow  
Snow 0.00 in 0.10 in T in (2016)
Month to date snowfall T 0.4  
Since 1 July snowfall T 0.4  
Since 1 September snowfall T 0.4  
Snow Depth 0.00 in    
Sea Level Pressure  
Sea Level Pressure 29.93 in    
Wind  
Wind Speed 12 mph (SSW)    
Max Wind Speed 29 mph    
Max Gust Speed 36 mph    
Visibility 6 miles    
Events Fog , Rain , Thunderstorm    
T = Trace of Precipitation, MM = Missing Value Source: NWS Daily Summary

Daily Weather History Graph

Daily Weather History Graph

Search for Another Location

Airport or City:

Astronomy

Nov. 22, 2012 Rise Set
Actual Time 6:50 AM CST 4:26 PM CST
Civil Twilight 6:19 AM CST 4:57 PM CST
Nautical Twilight 5:45 AM CST 5:31 PM CST
Astronomical Twilight 5:12 AM CST 6:04 PM CST
Moon 1:15 PM CST (11/22) 1:05 AM CST (11/22)
Length of Visible Light 10h 37m
Length of Day
9h 36m
Waxing Gibbous, 71% of the Moon is Illuminated
Nov 22
Waxing Gibbous
Nov 28
Full
Dec 6
Last Quarter
Dec 13
New
Dec 19
First Quarter

Hourly Weather History & Observations

Time (CST) Temp. Windchill Dew Point Humidity Pressure Visibility Wind Dir Wind Speed Gust Speed Precip Events Conditions
12:15 AM 43.7 °F 39.7 °F 43.0 °F 97% 30.10 in 2.5 mi South 6.9 mph - N/A   Clear
12:35 AM 40.8 °F 36.2 °F 40.5 °F 99% 30.10 in 0.5 mi South 6.9 mph - N/A Fog Fog
12:55 AM 40.5 °F 35.8 °F 40.5 °F 100% 30.09 in 0.5 mi South 6.9 mph - N/A Fog Fog
1:15 AM 40.1 °F 35.3 °F 40.1 °F 100% 30.09 in 0.5 mi South 6.9 mph - N/A Fog Fog
1:35 AM 40.1 °F 35.3 °F 40.1 °F 100% 30.09 in 0.5 mi South 6.9 mph - N/A Fog Fog
1:55 AM 39.7 °F 34.3 °F 39.7 °F 100% 30.09 in 0.8 mi SSE 8.1 mph - N/A   Mist
2:15 AM 39.6 °F 34.0 °F 39.6 °F 100% 30.08 in 0.8 mi SSE 8.1 mph - N/A   Drizzle
2:35 AM 39.7 °F 33.7 °F 39.7 °F 100% 30.08 in 1.0 mi SSE 9.2 mph - N/A   Mist
2:55 AM 39.7 °F 34.3 °F 39.7 °F 100% 30.08 in 1.2 mi South 8.1 mph - N/A   Mist
3:15 AM 39.4 °F 33.2 °F 39.4 °F 100% 30.07 in 1.2 mi SSE 9.2 mph - N/A   Mist
3:35 AM 39.2 °F 33.0 °F 39.2 °F 100% 30.07 in 1.2 mi South 9.2 mph - N/A   Mist
3:55 AM 39.2 °F 32.5 °F 39.2 °F 100% 30.06 in 1.2 mi South 10.4 mph - N/A   Mist
4:15 AM 39.2 °F 33.0 °F 39.2 °F 100% 30.05 in 1.2 mi South 9.2 mph - N/A   Mist
4:35 AM 39.6 °F 33.5 °F 39.6 °F 100% 30.05 in 1.5 mi South 9.2 mph - N/A   Mist
4:55 AM 40.3 °F 34.4 °F 40.3 °F 100% 30.04 in 2.0 mi South 9.2 mph - N/A   Clear
5:15 AM 40.6 °F 34.8 °F 40.6 °F 100% 30.04 in 2.0 mi South 9.2 mph - N/A   Clear
5:35 AM 41.4 °F 35.7 °F 41.2 °F 99% 30.04 in 2.5 mi South 9.2 mph - N/A   Clear
5:55 AM 41.0 °F 35.2 °F 40.6 °F 99% 30.03 in 2.0 mi South 9.2 mph - N/A   Clear
6:15 AM 40.8 °F 35.0 °F 40.5 °F 99% 30.03 in 2.0 mi South 9.2 mph - N/A   Clear
6:35 AM 41.9 °F 35.9 °F 41.5 °F 99% 30.03 in 2.5 mi South 10.4 mph - N/A   Clear
6:55 AM 41.9 °F 35.9 °F 41.4 °F 98% 30.02 in 1.8 mi South 10.4 mph - N/A   Mist
7:15 AM 42.1 °F 36.1 °F 41.5 °F 98% 30.02 in 1.5 mi South 10.4 mph - N/A   Mist
7:35 AM 43.0 °F 36.0 °F 42.4 °F 98% 30.01 in 1.8 mi South 13.8 mph - N/A   Mist
7:55 AM 44.2 °F 38.0 °F 43.3 °F 97% 30.01 in 2.0 mi South 12.7 mph - N/A   Clear
8:15 AM 46.0 °F 40.2 °F 44.2 °F 93% 30.01 in 3.0 mi South 12.7 mph - N/A   Clear
8:35 AM 46.9 °F - 45.1 °F 93% 30.01 in 3.0 mi South 11.5 mph - N/A   Clear
8:55 AM 50.0 °F - 46.9 °F 89% 30.00 in 4.0 mi South 11.5 mph - N/A   Clear
9:15 AM 53.2 °F - 47.8 °F 82% 29.99 in 5.0 mi South 17.3 mph - N/A   Haze
9:35 AM 54.0 °F - 47.3 °F 78% 29.98 in 7.0 mi South 16.1 mph - N/A   Clear
9:55 AM 55.6 °F - 46.8 °F 72% 29.98 in 7.0 mi SSW 17.3 mph - N/A   Clear
10:15 AM 56.3 °F - 46.6 °F 70% 29.98 in 7.0 mi SSW 18.4 mph 24.2 mph N/A   Clear
10:35 AM 57.0 °F - 45.7 °F 66% 29.96 in 10.0 mi South 19.6 mph - N/A   Clear
10:55 AM 57.2 °F - 46.2 °F 67% 29.96 in 10.0 mi SSW 16.1 mph 20.7 mph N/A   Clear
11:15 AM 58.5 °F - 46.0 °F 63% 29.94 in 10.0 mi SSW 19.6 mph 25.3 mph N/A   Clear
11:35 AM 59.2 °F - 46.0 °F 62% 29.92 in 10.0 mi South 20.7 mph - N/A   Clear
11:55 AM 60.1 °F - 46.2 °F 60% 29.91 in 10.0 mi South 20.7 mph - N/A   Clear
12:15 PM 59.5 °F - 46.4 °F 62% 29.89 in 10.0 mi South 18.4 mph 23.0 mph N/A   Clear
12:35 PM 60.6 °F - 46.6 °F 60% 29.88 in 10.0 mi South 16.1 mph 20.7 mph N/A   Scattered Clouds
12:55 PM 61.9 °F - 45.7 °F 55% 29.86 in 10.0 mi SSW 20.7 mph 26.5 mph N/A   Scattered Clouds
1:15 PM 61.9 °F - 45.5 °F 55% 29.85 in 10.0 mi South 19.6 mph 26.5 mph N/A   Clear
1:35 PM 61.9 °F - 45.7 °F 55% 29.84 in 10.0 mi South 24.2 mph 29.9 mph N/A   Clear
1:55 PM 62.1 °F - 45.1 °F 54% 29.83 in 10.0 mi SSW 18.4 mph 25.3 mph N/A   Clear
2:15 PM 62.6 °F - 45.1 °F 53% 29.83 in 10.0 mi SSW 19.6 mph 26.5 mph N/A   Mostly Cloudy
2:35 PM 61.9 °F - 45.1 °F 54% 29.83 in 10.0 mi SSW 19.6 mph 29.9 mph N/A   Mostly Cloudy
2:55 PM 61.7 °F - 45.5 °F 55% 29.83 in 10.0 mi SSW 21.9 mph 26.5 mph N/A   Mostly Cloudy
3:15 PM 61.2 °F - 45.7 °F 57% 29.83 in 10.0 mi SSW 18.4 mph 26.5 mph N/A   Scattered Clouds
3:35 PM 60.8 °F - 46.4 °F 59% 29.84 in 10.0 mi SSW 18.4 mph 21.9 mph N/A   Scattered Clouds
3:55 PM 59.5 °F - 48.0 °F 66% 29.84 in 7.0 mi SSW 19.6 mph 28.8 mph N/A Rain Light Rain
4:15 PM 58.3 °F - 48.9 °F 71% 29.85 in 7.0 mi SW 16.1 mph 23.0 mph N/A Rain , Thunderstorm Light Thunderstorms and Rain
4:35 PM 58.5 °F - 48.2 °F 69% 29.84 in 10.0 mi SSW 16.1 mph - N/A   Overcast
4:55 PM 58.1 °F - 48.0 °F 69% 29.84 in 10.0 mi SSW 13.8 mph - N/A   Overcast
5:15 PM 58.1 °F - 47.7 °F 68% 29.84 in 10.0 mi SSW 15.0 mph 18.4 mph N/A   Overcast
5:35 PM 57.9 °F - 47.7 °F 69% 29.84 in 10.0 mi SSW 17.3 mph - N/A   Overcast
5:55 PM 58.3 °F - 47.5 °F 67% 29.85 in 10.0 mi SSW 17.3 mph 23.0 mph N/A   Overcast
6:15 PM 57.0 °F - 48.4 °F 73% 29.86 in 7.0 mi SSW 17.3 mph 25.3 mph N/A Rain Heavy Rain
6:35 PM 54.5 °F - 50.0 °F 85% 29.85 in 7.0 mi SSW 15.0 mph 20.7 mph N/A Rain Light Rain
6:55 PM 54.1 °F - 50.2 °F 86% 29.83 in 7.0 mi SSW 12.7 mph - N/A   Overcast
7:15 PM 54.1 °F - 49.3 °F 84% 29.82 in 10.0 mi SSW 16.1 mph - N/A   Overcast
7:35 PM 54.5 °F - 48.9 °F 81% 29.81 in 10.0 mi SSW 18.4 mph 24.2 mph N/A   Overcast
7:55 PM 54.9 °F - 48.7 °F 80% 29.81 in 10.0 mi SSW 18.4 mph 25.3 mph N/A   Overcast
8:15 PM 54.7 °F - 48.4 °F 79% 29.81 in 10.0 mi SW 17.3 mph 24.2 mph N/A   Mostly Cloudy
8:35 PM 55.0 °F - 48.4 °F 78% 29.80 in 10.0 mi SSW 17.3 mph 25.3 mph N/A   Mostly Cloudy
8:55 PM 55.4 °F - 48.6 °F 78% 29.81 in 10.0 mi SW 18.4 mph 21.9 mph N/A   Overcast
9:15 PM 54.9 °F - 48.6 °F 79% 29.81 in 10.0 mi SW 17.3 mph 24.2 mph N/A   Overcast
9:35 PM 54.9 °F - 48.6 °F 79% 29.81 in 10.0 mi WSW 15.0 mph 20.7 mph N/A   Scattered Clouds
9:55 PM 54.5 °F - 48.9 °F 81% 29.81 in 10.0 mi WSW 20.7 mph 26.5 mph N/A   Scattered Clouds
10:15 PM 50.2 °F - 42.8 °F 76% 29.84 in 10.0 mi WNW 28.8 mph 35.7 mph N/A   Scattered Clouds
10:35 PM 46.0 °F 38.3 °F 39.7 °F 79% 29.85 in 10.0 mi WNW 20.7 mph 33.4 mph N/A   Scattered Clouds
10:55 PM 44.1 °F 35.4 °F 37.9 °F 79% 29.86 in 10.0 mi WNW 21.9 mph 29.9 mph N/A   Clear
11:15 PM 43.0 °F 34.0 °F 37.4 °F 81% 29.88 in 10.0 mi WNW 21.9 mph 28.8 mph N/A   Clear
11:35 PM 42.1 °F 33.1 °F 36.0 °F 79% 29.89 in 10.0 mi WNW 20.7 mph 28.8 mph N/A   Clear
11:55 PM 41.2 °F 31.6 °F 35.6 °F 81% 29.90 in 10.0 mi West 21.9 mph 28.8 mph N/A   Clear